Location: Serin Observatory
(40.5200°N, 74.4500°W)
Time: 17:02:49
(UTC+00:00)

SL-8 R/B - Visible Passes

Search period start: 19 January 2017 00:00
Search period end: 29 January 2017 00:00
Orbit: 657 x 668 km, 48.4° (Epoch: 18 January)

Date Brightness Start Highest point End Pass type
(mag) Time Alt. Az. Time Alt. Az. Time Alt. Az.
19 Jan 5.8 09:17:45 22° NE 09:17:45 22° NE 09:19:53 10° ENE visible
19 Jan 3.9 10:55:44 22° NW 10:58:43 63° NNE 11:03:28 10° ESE visible
20 Jan 4.7 09:47:33 40° NNE 09:47:33 40° NNE 09:51:37 10° E visible
20 Jan 3.8 11:25:32 13° WNW 11:29:50 67° SW 11:34:36 10° SE visible
21 Jan 6.8 08:39:23 11° ENE 08:39:23 11° ENE 08:39:37 10° ENE visible
21 Jan 3.8 10:17:23 51° NNW 10:18:25 66° NNE 10:23:11 10° ESE visible
22 Jan 5.9 09:09:17 23° ENE 09:09:17 23° ENE 09:11:21 10° E visible
22 Jan 3.8 10:47:16 30° WNW 10:49:31 63° SW 10:54:16 10° SE visible
23 Jan 4.5 09:39:14 50° E 09:39:14 50° E 09:42:54 10° ESE visible
23 Jan 4.9 11:17:14 15° W 11:20:23 28° SW 11:24:26 10° SSE visible
24 Jan 3.8 10:09:16 59° SSW 10:09:16 59° SSW 10:13:55 10° SE visible
25 Jan 6.2 09:01:23 18° ESE 09:01:23 18° ESE 09:02:36 10° ESE visible
25 Jan 4.8 10:39:23 25° WSW 10:40:02 26° SW 10:44:00 10° SSE visible
26 Jan 5.5 09:31:34 24° SSE 09:31:34 24° SSE 09:33:34 10° SE visible
27 Jan 5.6 10:01:51 18° S 10:01:51 18° S 10:03:32 10° S visible
